Weather History for Crosby, ND

Change the Weather History Date:

Thursday, January 23, 2014

  Actual Average (KISN) Record (KISN)
Temperature  
Mean Temperature 10 °F 11 °F  
Max Temperature 32 °F 22 °F 55 °F (1944)
Min Temperature -13 °F 0 °F -40 °F (1935)
Degree Days  
Heating Degree Days 56 54  
Month to date heating degree days 1252  
Since 1 July heating degree days 4999  
Cooling Degree Days 0 0  
Month to date cooling degree days 0  
Year to date cooling degree days 0  
Moisture  
Dew Point 3 °F    
Average Humidity 82    
Maximum Humidity 93    
Minimum Humidity 71    
Precipitation  
Precipitation 0.03 in 0.02 in 0.30 in (1897)
Month to date precipitation 0.47  
Year to date precipitation 0.47  
Sea Level Pressure  
Sea Level Pressure 30.26 in    
Wind  
Wind Speed 16 mph (SW)    
Max Wind Speed 36 mph    
Max Gust Speed 48 mph    
Visibility 10 miles    
Events Rain , Snow    
T = Trace of Precipitation, MM = Missing Value Source: NWS Daily Summary

Daily Weather History Graph

Daily Weather History Graph

Search for Another Location

Airport:

Trip Planner

Search our weather history database for the weather conditions in past years. The results will help you decide how hot, cold, wet, or windy it might be!

Date:

Astronomy

Jan. 23, 2014 Rise Set
Actual Time 8:34 AM CST 5:36 PM CST
Civil Twilight 7:59 AM CST 6:11 PM CST
Nautical Twilight 7:20 AM CST 6:50 PM CST
Astronomical Twilight 6:43 AM CST 7:27 PM CST
Moon 12:47 AM CST (1/23) 11:30 AM CST (1/23)
Length of Visible Light 10h 11m
Length of Day
9h 01m
Waning Gibbous, 55% of the Moon is Illuminated
Jan 23
Waning Gibbous
Jan 23
Last Quarter
Jan 30
New
Feb 6
First Quarter
Feb 14
Full

Hourly Weather History & Observations

Time (CST) Temp. Windchill Dew Point Humidity Pressure Visibility Wind Dir Wind Speed Gust Speed Precip Events Conditions
12:15 AM -11.2 °F -27.8 °F -16.6 °F 77% 30.63 in - SSW 8.1 mph - N/A   Unknown
12:35 AM -13.0 °F -27.0 °F -16.6 °F 84% 30.62 in - SSW 5.8 mph - N/A   Unknown
12:55 AM -11.2 °F -26.4 °F -16.6 °F 77% 30.62 in - SSW 6.9 mph - N/A   Unknown
1:15 AM -11.2 °F -30.1 °F -16.6 °F 77% 30.62 in - SSW 10.4 mph - N/A   Unknown
1:35 AM -13.0 °F -31.3 °F -18.4 °F 77% 30.62 in - SSW 9.2 mph - N/A   Unknown
1:55 AM -13.0 °F -32.4 °F -16.6 °F 84% 30.61 in - SSW 10.4 mph - N/A   Unknown
2:15 AM -11.2 °F -29.0 °F -16.6 °F 77% 30.61 in - SSW 9.2 mph - N/A   Unknown
2:35 AM -13.0 °F -32.4 °F -18.4 °F 77% 30.60 in - SSW 10.4 mph - N/A   Unknown
2:55 AM -13.0 °F -32.4 °F -18.4 °F 77% 30.59 in - SSW 10.4 mph - N/A   Unknown
3:15 AM -13.0 °F -35.2 °F -18.4 °F 77% 30.58 in - SSW 13.8 mph - N/A   Unknown
3:35 AM -13.0 °F -33.4 °F -18.4 °F 77% 30.57 in - SSW 11.5 mph - N/A   Unknown
3:55 AM - - - N/A% 30.56 in - SSW 9.2 mph - N/A   Unknown
4:15 AM -11.2 °F -26.4 °F -16.6 °F 77% 30.56 in - SSW 6.9 mph - N/A   Unknown
4:35 AM -11.2 °F -32.1 °F -16.6 °F 77% 30.56 in - SSW 12.7 mph - N/A   Unknown
4:55 AM -9.4 °F -30.6 °F -14.8 °F 77% 30.55 in - SSW 13.8 mph - N/A   Unknown
5:15 AM -9.4 °F -30.6 °F -14.8 °F 77% 30.54 in - SSW 13.8 mph - N/A   Unknown
5:35 AM -11.2 °F -31.1 °F -16.6 °F 77% 30.54 in - SSW 11.5 mph - N/A   Unknown
5:55 AM -9.4 °F -31.4 °F -16.6 °F 71% 30.52 in - SSW 15.0 mph - N/A   Unknown
6:15 AM -9.4 °F -29.8 °F -14.8 °F 77% 30.52 in - SSW 12.7 mph - N/A   Unknown
6:35 AM -9.4 °F -30.6 °F -14.8 °F 77% 30.52 in - SSW 13.8 mph - N/A   Unknown
6:55 AM -9.4 °F -29.8 °F -14.8 °F 77% 30.51 in - SSW 12.7 mph - N/A   Unknown
7:15 AM -9.4 °F -29.8 °F -13.0 °F 84% 30.50 in - SSW 12.7 mph - N/A   Unknown
7:35 AM -7.6 °F -30.5 °F -13.0 °F 77% 30.48 in - SSW 17.3 mph - N/A   Unknown
7:55 AM - - - N/A% 30.47 in - SSW 16.1 mph 19.6 mph N/A   Unknown
8:15 AM -5.8 °F -27.5 °F -11.2 °F 77% 30.45 in - SSW 16.1 mph 20.7 mph N/A   Unknown
8:35 AM -5.8 °F -28.8 °F -11.2 °F 77% 30.43 in - SSW 18.4 mph 23.0 mph N/A   Unknown
8:55 AM -4.0 °F -22.1 °F -11.2 °F 71% 30.42 in - SSW 11.5 mph - N/A   Unknown
9:15 AM -4.0 °F -23.7 °F -9.4 °F 78% 30.41 in - SSW 13.8 mph - N/A   Unknown
9:35 AM -4.0 °F -27.6 °F -9.4 °F 78% 30.39 in - SSW 20.7 mph 26.5 mph N/A   Unknown
9:55 AM -2.2 °F -23.5 °F -9.4 °F 71% 30.37 in - SSW 17.3 mph - N/A   Unknown
10:15 AM -2.2 °F -22.9 °F -7.6 °F 78% 30.36 in - SSW 16.1 mph - N/A   Unknown
10:35 AM -0.4 °F -20.5 °F -5.8 °F 78% 30.35 in - SSW 16.1 mph 21.9 mph N/A   Unknown
10:55 AM -0.4 °F -22.3 °F -2.2 °F 92% 30.32 in - SSW 19.6 mph 27.6 mph N/A   Unknown
11:15 AM 3.2 °F -19.5 °F -0.4 °F 85% 30.30 in - SSW 24.2 mph 29.9 mph N/A   Unknown
11:35 AM 8.6 °F -14.1 °F 5.0 °F 85% 30.29 in - SW 29.9 mph 41.4 mph N/A Rain Light Freezing Rain
11:55 AM 8.6 °F -13.4 °F 6.8 °F 92% 30.28 in - SW 27.6 mph 44.9 mph N/A Snow Heavy Snow
12:15 PM 10.4 °F -11.4 °F 6.8 °F 85% 30.27 in - SW 28.8 mph 39.1 mph N/A Snow Heavy Snow
12:35 PM 12.2 °F -8.9 °F 6.8 °F 79% 30.25 in - SW 28.8 mph 34.5 mph N/A   Unknown
12:55 PM 14.0 °F -8.3 °F 8.6 °F 79% 30.21 in - SW 35.7 mph 43.7 mph 0.01 in Snow Heavy Snow
1:15 PM 14.0 °F -8.3 °F 10.4 °F 86% 30.20 in - SW 35.7 mph 48.3 mph N/A Snow Heavy Snow
1:35 PM 15.8 °F -3.1 °F 12.2 °F 86% 30.20 in - SW 25.3 mph 35.7 mph 0.02 in Snow Heavy Snow
1:55 PM 15.8 °F -3.1 °F 14.0 °F 93% 30.19 in - SW 25.3 mph 31.1 mph 0.02 in Snow Heavy Snow
2:15 PM 17.6 °F 0.1 °F 14.0 °F 86% 30.16 in - SW 23.0 mph 31.1 mph N/A   Unknown
2:35 PM 17.6 °F 0.1 °F 15.8 °F 93% 30.13 in - SW 23.0 mph 35.7 mph N/A   Unknown
2:55 PM 17.6 °F -1.6 °F 15.8 °F 93% 30.10 in - SW 28.8 mph 39.1 mph N/A   Unknown
3:15 PM 19.4 °F 1.8 °F 15.8 °F 86% 30.09 in - SW 25.3 mph 34.5 mph N/A   Unknown
3:35 PM 19.4 °F 2.5 °F 15.8 °F 86% 30.07 in - SW 23.0 mph 34.5 mph N/A   Unknown
3:55 PM 19.4 °F 1.8 °F 15.8 °F 86% 30.06 in 10.0 mi SW 25.3 mph 33.4 mph N/A   Unknown
4:15 PM 21.2 °F 3.9 °F 17.6 °F 86% 30.03 in 10.0 mi SW 26.5 mph 36.8 mph N/A   Unknown
4:35 PM 23.0 °F 4.6 °F 17.6 °F 80% 30.00 in 10.0 mi SW 33.4 mph 42.6 mph N/A   Unknown
4:55 PM 23.0 °F 5.7 °F 17.6 °F 80% 30.01 in 10.0 mi WSW 28.8 mph 41.4 mph N/A   Unknown
5:15 PM 23.0 °F 6.3 °F 17.6 °F 80% 29.98 in 10.0 mi SW 26.5 mph 40.3 mph N/A   Unknown
5:35 PM 24.8 °F 7.9 °F 19.4 °F 80% 29.95 in 10.0 mi SW 29.9 mph 41.4 mph N/A   Unknown
5:55 PM 24.8 °F 8.1 °F 19.4 °F 80% 29.94 in 10.0 mi SW 28.8 mph 35.7 mph N/A   Unknown
6:15 PM 24.8 °F 8.4 °F 19.4 °F 80% 29.93 in 10.0 mi SW 27.6 mph 33.4 mph N/A   Unknown
6:35 PM 24.8 °F 9.0 °F 19.4 °F 80% 29.94 in 10.0 mi SW 25.3 mph 29.9 mph N/A   Unknown
6:55 PM 24.8 °F 9.6 °F 19.4 °F 80% 29.92 in 10.0 mi SW 23.0 mph 27.6 mph N/A   Unknown
7:15 PM 24.8 °F 9.0 °F 21.2 °F 86% 29.91 in 10.0 mi WSW 25.3 mph 33.4 mph N/A   Unknown
7:35 PM 26.6 °F 12.0 °F 21.2 °F 80% 29.91 in 10.0 mi WSW 23.0 mph 34.5 mph N/A   Unknown
7:55 PM 26.6 °F 12.4 °F 23.0 °F 86% 29.90 in 10.0 mi WSW 21.9 mph - N/A   Unknown
8:35 PM 26.6 °F 12.4 °F 23.0 °F 86% 29.88 in 10.0 mi WSW 21.9 mph 26.5 mph N/A   Unknown
8:55 PM 28.4 °F 14.7 °F 24.8 °F 86% 29.88 in 10.0 mi WSW 21.9 mph - N/A   Unknown
9:15 PM 28.4 °F 15.1 °F 24.8 °F 86% 29.87 in 10.0 mi WSW 20.7 mph - N/A   Unknown
9:55 PM 30.2 °F 17.1 °F 26.6 °F 86% 29.85 in 10.0 mi West 21.9 mph - N/A   Unknown
10:15 PM 32.0 °F 20.1 °F 26.6 °F 80% 29.86 in 10.0 mi West 19.6 mph - N/A   Unknown
10:35 PM 32.0 °F 20.8 °F 26.6 °F 80% 29.86 in 10.0 mi West 17.3 mph 21.9 mph N/A   Unknown
10:55 PM 30.2 °F 19.3 °F 28.4 °F 93% 29.87 in 10.0 mi West 15.0 mph - N/A   Unknown
11:15 PM 28.4 °F 18.0 °F 26.6 °F 93% 29.88 in 10.0 mi WNW 12.7 mph 19.6 mph N/A   Unknown
11:35 PM 32.0 °F 20.5 °F 28.4 °F 87% 29.88 in 10.0 mi WNW 18.4 mph - N/A   Unknown
11:55 PM 32.0 °F 20.5 °F 28.4 °F 87% 29.88 in 10.0 mi NW 18.4 mph 27.6 mph N/A   Unknown